Weather History for Liberia, Costa Rica

Change the Weather History Date:

Saturday, February 23, 2013

  Actual Average Record
Temperature  
Mean Temperature 80 °F -  
Max Temperature 93 °F 92 °F - ()
Min Temperature 68 °F 75 °F - ()
Cooling Degree Days 16    
Growing Degree Days 30 (Base 50)    
Moisture  
Dew Point 64 °F    
Average Humidity 51    
Maximum Humidity 83    
Minimum Humidity 36    
Precipitation  
Precipitation 0.00 in - - ()
Sea Level Pressure  
Sea Level Pressure 29.80 in    
Wind  
Wind Speed 9 mph ()    
Max Wind Speed 44 mph    
Max Gust Speed -    
Visibility 7.8 miles    
Events      
T = Trace of Precipitation, MM = Missing Value Source: Averaged Metar Reports

Daily Weather History Graph

Daily Weather History Graph

Search for Another Location

Airport:

Trip Planner

Search our weather history database for the weather conditions in past years. The results will help you decide how hot, cold, wet, or windy it might be!

Date:

Astronomy

Feb. 23, 2013 Rise Set
Actual Time 5:59 AM CST 5:51 PM CST
Civil Twilight 5:38 AM CST 6:13 PM CST
Nautical Twilight 5:13 AM CST 6:37 PM CST
Astronomical Twilight 4:48 AM CST 7:02 PM CST
Moon 4:11 PM CST (2/23) 4:07 AM CST (2/23)
Length of Visible Light 12h 34m
Length of Day
11h 52m
Waxing Gibbous, 95% of the Moon is Illuminated
Feb 23
Waxing Gibbous
Feb 25
Full
Mar 4
Last Quarter
Mar 11
New
Mar 19
First Quarter

Hourly Weather History & Observations

Time (CST) Temp. Heat Index Dew Point Humidity Pressure Visibility Wind Dir Wind Speed Gust Speed Precip Events Conditions
6:00 AM 70 °F - 65 °F 79% 29.81 in 12 mi East 4.6 mph - -  
6:00 AM 69.8 °F - 64.4 °F 83% 29.80 in - East 4.6 mph - N/A   Clear
7:00 AM 71.6 °F - 64.4 °F 78% 29.83 in - NE 4.6 mph - N/A   Clear
8:00 AM 84.2 °F 85.6 °F 64.4 °F 51% 29.84 in - WSW 2.3 mph - N/A   Clear
9:00 AM 87 °F - 64 °F 37% 29.86 in 12 mi East 13.8 mph - -  
9:00 AM 87.8 °F 89.4 °F 64.4 °F 46% 29.84 in - East 13.8 mph - N/A   Clear
10:00 AM 89.6 °F 90.1 °F 62.6 °F 40% 29.85 in - East 15.0 mph - N/A   Clear
11:00 AM 89.6 °F 90.1 °F 62.6 °F 40% 29.82 in 6.2 mi ENE 19.6 mph - N/A   Partly Cloudy
12:00 PM - - 62 °F % 29.81 in 12 mi NNE 43.7 mph - -  
12:00 PM 93.2 °F 94.9 °F 64.4 °F 38% 29.79 in 6.2 mi East 13.8 mph - N/A   Partly Cloudy
1:00 PM 93.2 °F 94.1 °F 62.6 °F 36% 29.78 in 6.2 mi East 10.4 mph - N/A   Partly Cloudy
2:00 PM 93.2 °F 94.1 °F 62.6 °F 36% 29.75 in 6.2 mi ENE 11.5 mph - N/A   Partly Cloudy
3:00 PM 93.2 °F 94.1 °F 62.6 °F 36% 29.73 in 6.2 mi East 11.5 mph - N/A   Partly Cloudy
4:00 PM 91.4 °F 92.1 °F 62.6 °F 38% 29.73 in 6.2 mi East 15.0 mph - N/A   Partly Cloudy
5:00 PM 87.8 °F 88.5 °F 62.6 °F 43% 29.74 in 6.2 mi ENE 13.8 mph - N/A   Partly Cloudy
6:00 PM 84.2 °F 85.6 °F 64.4 °F 51% 29.75 in 6.2 mi ENE 11.5 mph - N/A   Partly Cloudy
8:00 PM 80.6 °F 82.3 °F 64.4 °F 58% 29.81 in - South 5.8 mph - N/A   Clear
9:00 PM 78.8 °F - 64.4 °F 61% 29.82 in - East 4.6 mph - N/A   Clear
10:00 PM 78.8 °F - 64.4 °F 61% 29.83 in - East 6.9 mph - N/A   Clear
11:00 PM 77.0 °F - 62.6 °F 61% 29.84 in - NE 6.9 mph - N/A   Clear